When you browse on this site, cookies collect data to enhance your experience and personalize the content and advertising you see.
Visit our Privacy Policy to learn more. By continuing to use the site, you agree to this use of cookies and data.
  • In Austria
  • List of Countries
  • For 7 days
  • Water Temperature
  • Satellite Maps
  • Weather Map
  • News
  • Weather Widgets
  • user-avatar
    Login

    Hourly Weather Dortmund

    Today, 21 January, Monday

    Time Temperature Precipitation Wind Pressure Humidity
    00:00 -2°C° 0 mm 0 mps 758 mmHg 57%
    01:00 -2°C° 0 mm 0 mps 758 mmHg 57%
    02:00 -2°C° 0 mm 0 mps 758 mmHg 57%
    03:00 -2°C° 0 mm 0 mps 758 mmHg 57%
    04:00 -2°C° 0 mm 0 mps 758 mmHg 57%
    05:00 -1°C° 0 mm 1 mps 758 mmHg 58%
    06:00 -2°C° 0 mm 1 mps 758 mmHg 59%
    07:00 -2°C° 0 mm 1 mps 758 mmHg 58%
    08:00 -1°C° 0 mm 1 mps 758 mmHg 57%
    09:00 -1°C° 0 mm 1 mps 758 mmHg 55%
    10:00 0°C° 0 mm 1 mps 758 mmHg 52%
    11:00 +1°C° 0 mm 1 mps 758 mmHg 49%
    12:00 +1°C° 0 mm 2 mps 757 mmHg 46%
    13:00 +2°C° 0 mm 1 mps 757 mmHg 47%
    14:00 +1°C° 0 mm 1 mps 757 mmHg 49%
    15:00 +1°C° 0 mm 1 mps 756 mmHg 51%
    16:00 +1°C° 0 mm 1 mps 756 mmHg 53%
    17:00 0°C° 0 mm 1 mps 756 mmHg 55%
    18:00 -3°C° 0 mm 2 mps 755 mmHg 57%
    19:00 -3°C° 0 mm 2 mps 755 mmHg 57%
    20:00 -3°C° 0 mm 2 mps 755 mmHg 56%
    21:00 -3°C° 0 mm 2 mps 755 mmHg 55%
    22:00 -3°C° 0 mm 2 mps 754 mmHg 55%
    23:00 -3°C° 0 mm 2 mps 754 mmHg 55%

    Tomorrow, 22 January, Tuesday

    Time Temperature Precipitation Wind Pressure Humidity
    00:00 -3°C° 0 mm 2 mps 753 mmHg 54%
    01:00 -3°C° 0 mm 2 mps 753 mmHg 54%
    02:00 -4°C° 0 mm 3 mps 752 mmHg 54%
    03:00 -4°C° 0 mm 3 mps 751 mmHg 53%
    04:00 -4°C° 0 mm 3 mps 751 mmHg 53%
    05:00 -4°C° 0 mm 3 mps 750 mmHg 54%
    06:00 -4°C° 0 mm 3 mps 749 mmHg 54%
    07:00 -3°C° 0 mm 4 mps 748 mmHg 52%
    08:00 -3°C° 0 mm 4 mps 748 mmHg 49%
    09:00 -4°C° 0 mm 5 mps 747 mmHg 47%
    10:00 -2°C° 0 mm 5 mps 746 mmHg 44%
    11:00 -1°C° 0 mm 5 mps 745 mmHg 42%
    12:00 0°C° 0 mm 5 mps 745 mmHg 39%
    13:00 -1°C° 0 mm 5 mps 744 mmHg 47%
    14:00 -1°C° 0 mm 5 mps 744 mmHg 54%
    15:00 -2°C° 0 mm 5 mps 743 mmHg 62%
    16:00 -2°C° 0.1 mm 4 mps 743 mmHg 68%
    17:00 -2°C° 0.1 mm 4 mps 743 mmHg 73%
    18:00 -2°C° 0.1 mm 4 mps 743 mmHg 79%
    19:00 -1°C° 0.3 mm 3 mps 743 mmHg 82%
    20:00 -2°C° 0.3 mm 3 mps 742 mmHg 84%
    21:00 -2°C° 0.3 mm 3 mps 742 mmHg 87%
    22:00 -2°C° 0.2 mm 2 mps 742 mmHg 88%
    23:00 -2°C° 0.2 mm 2 mps 742 mmHg 89%

    Day after tomorrow, 23 January, Wednesday

    Time Temperature Precipitation Wind Pressure Humidity
    00:00 0°C° 0.2 mm 1 mps 742 mmHg 90%
    01:00 0°C° 0.2 mm 1 mps 741 mmHg 91%
    02:00 0°C° 0.2 mm 1 mps 741 mmHg 91%
    03:00 -1°C° 0.2 mm 0 mps 741 mmHg 92%
    04:00 -1°C° 0.3 mm 0 mps 741 mmHg 93%
    05:00 0°C° 0.3 mm 1 mps 741 mmHg 94%
    06:00 0°C° 0.3 mm 1 mps 741 mmHg 95%
    07:00 0°C° 0.2 mm 1 mps 742 mmHg 93%
    08:00 0°C° 0.2 mm 1 mps 742 mmHg 92%
    09:00 +1°C° 0.2 mm 1 mps 742 mmHg 90%
    10:00 +1°C° 0 mm 1 mps 742 mmHg 87%
    11:00 -1°C° 0 mm 2 mps 743 mmHg 84%
    12:00 +1°C° 0 mm 2 mps 743 mmHg 81%
    13:00 +1°C° 0 mm 2 mps 743 mmHg 82%
    14:00 -1°C° 0 mm 2 mps 744 mmHg 83%
    15:00 -1°C° 0 mm 2 mps 744 mmHg 84%
    16:00 -2°C° 0 mm 2 mps 745 mmHg 86%
    17:00 -3°C° 0 mm 2 mps 745 mmHg 89%
    18:00 -1°C° 0 mm 1 mps 746 mmHg 91%
    19:00 -2°C° 0 mm 1 mps 747 mmHg 90%
    20:00 -2°C° 0 mm 1 mps 747 mmHg 90%
    21:00 -2°C° 0 mm 1 mps 748 mmHg 89%
    22:00 -2°C° 0 mm 1 mps 748 mmHg 89%
    23:00 -2°C° 0 mm 1 mps 749 mmHg 88%

    24 January, Thursday

    Time Temperature Precipitation Wind Pressure Humidity
    00:00 -2°C° 0 mm 1 mps 749 mmHg 87%
    01:00 -2°C° 0 mm 1 mps 749 mmHg 87%
    02:00 -2°C° 0 mm 1 mps 750 mmHg 87%
    03:00 -2°C° 0 mm 1 mps 750 mmHg 87%
    04:00 -2°C° 0 mm 1 mps 750 mmHg 86%
    05:00 -3°C° 0 mm 1 mps 751 mmHg 86%
    06:00 -3°C° 0 mm 1 mps 751 mmHg 86%
    07:00 -2°C° 0 mm 1 mps 752 mmHg 84%
    08:00 -2°C° 0 mm 1 mps 752 mmHg 83%
    09:00 -1°C° 0 mm 1 mps 752 mmHg 82%
    10:00 0°C° 0 mm 1 mps 752 mmHg 82%
    11:00 +1°C° 0 mm 1 mps 752 mmHg 81%
    12:00 +2°C° 0 mm 1 mps 752 mmHg 81%
    13:00 +2°C° 0 mm 1 mps 752 mmHg 85%
    14:00 +1°C° 0 mm 1 mps 752 mmHg 89%
    15:00 -1°C° 0 mm 2 mps 752 mmHg 92%
    16:00 -1°C° 0 mm 2 mps 753 mmHg 94%
    17:00 -1°C° 0 mm 2 mps 753 mmHg 95%
    18:00 -2°C° 0 mm 2 mps 753 mmHg 96%
    19:00 -2°C° 0 mm 2 mps 753 mmHg 95%
    20:00 -2°C° 0 mm 2 mps 753 mmHg 94%
    21:00 -1°C° 0 mm 2 mps 753 mmHg 93%
    22:00 -1°C° 0.1 mm 2 mps 753 mmHg 92%
    23:00 -1°C° 0.1 mm 2 mps 753 mmHg 91%

    25 January, Friday

    Time Temperature Precipitation Wind Pressure Humidity
    00:00 -1°C° 0.1 mm 3 mps 753 mmHg 90%
    01:00 -1°C° 0.2 mm 3 mps 752 mmHg 89%
    02:00 -1°C° 0.2 mm 3 mps 752 mmHg 88%
    03:00 -1°C° 0.2 mm 3 mps 752 mmHg 87%
    04:00 -1°C° 0.1 mm 3 mps 752 mmHg 87%
    05:00 -1°C° 0.1 mm 3 mps 752 mmHg 87%
    06:00 -1°C° 0.1 mm 3 mps 751 mmHg 87%
    07:00 -1°C° 0 mm 3 mps 752 mmHg 87%
    08:00 0°C° 0 mm 3 mps 752 mmHg 87%
    09:00 0°C° 0 mm 3 mps 752 mmHg 87%
    10:00 0°C° 0 mm 3 mps 752 mmHg 87%
    11:00 +1°C° 0 mm 3 mps 752 mmHg 87%
    12:00 +1°C° 0 mm 3 mps 751 mmHg 87%
    13:00 +1°C° 0.1 mm 3 mps 751 mmHg 89%
    14:00 +1°C° 0.1 mm 3 mps 751 mmHg 90%
    15:00 +1°C° 0.1 mm 3 mps 751 mmHg 92%
    16:00 +1°C° 0.1 mm 3 mps 751 mmHg 92%
    17:00 +1°C° 0.1 mm 3 mps 751 mmHg 93%
    18:00 0°C° 0.1 mm 4 mps 751 mmHg 94%
    19:00 +1°C° 0.1 mm 3 mps 750 mmHg 95%
    20:00 +1°C° 0.1 mm 3 mps 750 mmHg 95%
    21:00 +2°C° 0.1 mm 3 mps 750 mmHg 96%
    22:00 +2°C° 0.1 mm 3 mps 750 mmHg 96%
    23:00 +2°C° 0.1 mm 3 mps 750 mmHg 97%

    26 January, Saturday

    Time Temperature Precipitation Wind Pressure Humidity
    00:00 +2°C° 0.1 mm 3 mps 749 mmHg 97%
    01:00 +3°C° 0.1 mm 4 mps 749 mmHg 97%
    02:00 +3°C° 0.1 mm 4 mps 748 mmHg 96%
    03:00 +3°C° 0.1 mm 4 mps 748 mmHg 96%
    04:00 +3°C° 0 mm 4 mps 747 mmHg 94%
    05:00 +2°C° 0 mm 5 mps 747 mmHg 93%
    06:00 +2°C° 0 mm 5 mps 746 mmHg 91%
    07:00 +3°C° 0.3 mm 5 mps 746 mmHg 92%
    08:00 +3°C° 0.3 mm 5 mps 746 mmHg 92%
    09:00 +3°C° 0.3 mm 5 mps 745 mmHg 93%
    10:00 +3°C° 0.2 mm 5 mps 745 mmHg 92%
    11:00 +4°C° 0.2 mm 6 mps 744 mmHg 91%
    12:00 +4°C° 0.2 mm 6 mps 743 mmHg 90%
    13:00 +4°C° 0.5 mm 6 mps 743 mmHg 88%
    14:00 +4°C° 0.5 mm 6 mps 742 mmHg 87%
    15:00 +4°C° 0.5 mm 6 mps 741 mmHg 86%
    16:00 +4°C° 1.2 mm 6 mps 741 mmHg 87%
    17:00 +4°C° 1.2 mm 6 mps 741 mmHg 87%
    18:00 +4°C° 1.2 mm 6 mps 740 mmHg 88%
    19:00 +3°C° 0.7 mm 5 mps 741 mmHg 89%
    20:00 +3°C° 0.7 mm 5 mps 741 mmHg 90%
    21:00 +4°C° 0.7 mm 4 mps 741 mmHg 90%
    22:00 +3°C° 0 mm 4 mps 742 mmHg 91%
    23:00 +2°C° 0 mm 3 mps 742 mmHg 91%
    Show more